Tracking 28920 objects as of 26-May-2024
HD Live streaming from Space Station
objects crossing your sky now

STARLINK-5339

Track STARLINK-5339 now!
10-day predictions
STARLINK-5339 is classified as:


NORAD ID: 56510
Int'l Code: 2023-065H
Perigee: 565.2 km
Apogee: 567.3 km
Inclination: 43.0 °
Period: 95.8 minutes
Semi major axis: 6937 km
RCS: Unknown
Launch date: May 14, 2023
Source: United States (US)
Launch site: AIR FORCE EASTERN TEST RANGE (AFETR)
Your satellite tracking list
Your tracking list is empty




NASA's NSSDC Master Catalog

Two Line Element Set (TLE):
1 56510U 23065H   24147.41945837  .00001444  00000-0  12197-3 0  9998
2 56510  43.0030 154.8320 0001517 274.1884  85.8785 15.02535945 58508
Source of the keplerian elements: AFSPC